Lid_Strength_Index
0 -0 -1 -1 -1 -1 -1 -1 -1 0 0 0 1 1 1 1 1 1 1 1 1 1 1 1 2 2 2 2 2 2 2 1 1 -0 -0 -1 -1 -1 -0 0 1 1 -0
-0 -0 -1 -1 -0 -1 0 0 0 1 1 1 1 1 2 2 2 2 2 2 2 1 1 1 2 2 2 2 2 2 2 2 1 1 1 1 0 0 1 1 1 1 1
0 -0 0 -0 -0 -0 0 0 1 1 1 1 1 2 2 2 2 2 2 2 2 2 2 2 2 2 2 3 2 3 3 4 2 2 2 2 2 1 2 2 2 2 1
1 1 1 -0 0 0 0 0 1 1 1 1 1 2 2 3 3 3 3 3 2 2 2 2 2 2 3 3 3 3 3 4 4 4 3 3 3 2 2 2 2 2 3
2 1 0 -0 0 0 1 1 1 2 2 2 2 2 3 3 3 3 3 3 3 2 2 2 2 2 3 3 3 4 4 4 5 5 4 3 3 2 2 3 3 3 2
1 0 0 0 1 1 0 1 1 2 2 2 2 3 3 3 3 3 3 3 2 2 2 2 3 3 3 3 3 3 4 5 5 5 4 3 2 1 2 3 3 3 3
2 1 1 0 1 0 1 1 2 2 2 2 2 2 2 2 2 3 3 3 2 2 3 3 3 3 3 4 4 4 4 5 5 4 3 3 1 1 0 2 2 2 2
2 2 1 1 1 2 2 2 3 3 3 3 3 3 3 3 3 3 3 3 3 3 3 2 3 3 4 4 4 4 4 4 7 4 3 2 1 1 -0 -0 -0 1 1
2 2 2 2 2 3 3 3 3 3 3 3 3 4 4 4 4 3 3 3 3 3 3 3 3 4 5 5 5 5 5 5 7 6 5 3 2 2 1 1 1 1 1
3 3 3 3 4 3 3 3 3 3 3 3 4 4 5 5 4 3 4 3 3 4 4 4 4 5 5 6 5 5 6 7 7 7 6 5 2 2 2 2 2 2 2
5 4 4 5 4 3 3 3 4 4 4 4 4 5 5 5 5 5 4 5 4 5 5 5 5 6 6 7 6 6 7 7 7 6 6 5 3 2 2 3 3 3 2
6 6 5 5 5 4 5 5 6 5 5 5 4 5 5 5 5 6 6 6 5 6 6 6 6 7 7 7 7 7 7 7 7 6 6 4 3 2 1 2 3 3 3
6 6 7 6 5 6 6 6 6 6 6 5 4 5 6 6 6 7 7 7 7 7 7 7 7 7 7 7 8 8 7 7 7 6 6 5 3 2 1 1 3 3 3
6 7 7 7 6 7 6 6 6 6 5 4 5 5 7 7 7 7 7 7 8 7 7 7 7 7 7 7 7 7 7 7 7 7 6 5 3 2 1 1 2 3 3
7 7 7 7 7 7 6 6 6 5 4 4 5 6 6 7 7 7 7 7 7 7 7 7 7 7 7 7 7 7 7 7 7 6 6 6 4 3 2 0 2 2 3
6 6 8 8 7 7 7 6 5 4 4 3 5 5 6 6 7 7 7 7 7 7 7 7 7 7 7 7 7 7 7 7 7 6 6 6 5 4 2 1 1 2 3
8 8 8 8 8 7 6 5 4 5 4 4 5 5 6 6 6 6 6 6 6 6 6 6 6 6 7 7 7 7 7 7 7 7 6 6 5 5 4 2 0 2 2
8 9 9 8 8 7 5 6 6 6 6 6 6 6 6 5 5 5 6 6 6 6 6 6 6 7 7 7 7 7 7 7 6 6 6 5 5 5 5 2 1 1 1
10 10 10 9 7 6 7 7 8 7 7 7 7 6 6 5 5 6 6 6 5 6 6 6 7 6 7 7 6 6 6 6 5 5 5 5 4 5 4 5 3 2 2
10 10 10 8 7 7 7 7 7 7 7 7 7 6 6 6 5 5 6 6 6 6 6 6 6 5 5 5 6 6 5 5 5 4 5 5 4 4 4 4 4 4 3
11 9 8 8 7 8 9 8 8 8 8 7 7 6 6 6 6 6 6 6 6 6 6 5 5 6 6 5 6 6 5 4 4 5 5 4 5 4 4 4 4 4 3
10 8 8 8 8 8 8 8 7 8 7 7 7 6 6 6 6 6 6 6 6 6 5 5 5 6 5 5 7 7 9 7 6 6 5 6 5 4 5 4 4 4 4
9 8 8 8 8 8 8 8 8 7 7 8 7 7 7 6 6 6 6 5 5 5 5 5 5 6 7 6 6 8 10 11 9 6 7 6 6 5 5 5 4 4 4
9 8 8 9 8 8 8 8 8 9 9 8 8 8 7 6 6 5 5 4 4 4 5 5 5 5 6 8 6 6 6 7 10 11 7 7 6 6 5 5 5 4 4
8 8 8 8 8 8 8 8 8 8 9 8 8 8 7 6 5 4 4 4 4 5 5 5 5 5 6 7 7 7 7 7 8 10 11 9 7 6 6 5 5 4 4
8 8 9 8 8 8 7 7 8 8 9 9 8 8 7 5 5 4 4 4 4 5 5 5 5 5 6 6 6 7 8 9 9 10 11 11 9 7 6 6 5 5 4